RH
34 31 33 41 51 49 54 54 70 96 100 100 96 100 96 100 100 84 98 100 100 100 100 100 100 100 100 100 100 100 95 93 99 88 76 67 64 62 67 66 81 91 99 100
31 32 31 37 46 51 46 49 55 60 98 100 100 100 100 100 100 100 76 87 94 90 99 100 100 100 100 100 100 99 95 83 71 60 62 62 78 82 74 70 87 90 91 99
22 30 34 32 32 40 45 45 48 47 48 76 100 100 100 100 100 100 100 100 100 84 56 65 63 60 67 69 67 64 58 60 63 62 81 89 86 76 83 100 100 100 100 99
23 26 27 29 30 37 46 44 41 43 42 39 47 84 100 100 100 100 100 100 100 100 98 68 68 66 70 87 98 83 71 72 93 100 99 98 100 100 100 100 100 100 95 83
25 27 31 31 30 32 33 40 44 42 44 35 32 33 50 99 100 100 100 100 100 100 100 99 97 87 93 97 100 100 100 100 100 100 100 100 100 100 99 88 84 73 51 44
26 27 27 28 29 33 37 42 39 36 38 39 39 31 31 41 80 100 100 100 100 100 100 100 100 100 100 100 100 100 100 100 100 100 100 99 90 81 69 59 52 44 38 34
29 30 34 32 29 31 33 39 39 40 40 38 38 33 29 33 34 55 80 95 100 100 100 100 100 100 100 93 95 99 96 91 85 77 68 69 63 57 51 45 40 35 32 30
35 38 37 35 34 39 43 41 40 38 40 36 36 37 34 35 35 36 52 66 68 68 66 65 65 64 62 62 62 61 61 62 58 55 54 51 49 46 42 36 32 29 29 29
34 40 41 39 41 43 46 44 45 41 39 37 42 40 37 39 43 42 46 56 58 61 64 63 61 59 58 58 54 53 51 49 46 46 45 44 42 39 39 40 38 36 34 31
30 41 50 53 46 44 51 55 52 45 50 50 50 40 39 58 49 47 51 54 56 55 55 55 54 52 52 52 51 47 45 47 48 47 46 43 39 36 35 35 36 34 32 32
35 37 44 52 58 57 56 55 53 50 47 49 54 43 38 49 59 59 57 56 56 57 57 55 56 55 52 51 52 52 50 48 48 48 46 41 39 39 35 34 32 30 29 28
51 49 44 40 41 44 45 43 41 43 49 58 53 58 47 54 57 58 62 63 60 61 63 60 58 58 58 56 54 52 52 51 49 48 47 46 44 39 36 32 27 23 20 20
65 59 50 47 43 40 42 52 57 61 61 66 60 57 63 61 59 54 54 56 57 56 56 61 63 59 56 55 55 56 53 54 50 50 47 42 37 30 25 23 21 18 15 14
76 83 83 94 82 75 72 68 62 59 59 58 62 64 67 66 65 62 63 64 66 67 64 61 60 58 59 59 56 54 56 52 46 35 28 26 23 19 16 15 12 13 13 12
100 100 96 85 74 66 63 61 60 61 61 65 62 62 60 62 77 79 76 70 71 72 73 72 70 64 60 57 54 44 34 28 25 22 18 17 15 13 12 13 12 12 12 10
99 92 85 81 75 71 68 68 68 70 70 68 69 73 83 83 75 78 83 88 83 79 74 68 67 61 46 33 27 24 24 24 21 20 20 18 18 13 12 16 15 11 10 9
84 81 82 79 78 79 80 73 75 82 87 91 98 100 99 98 98 92 87 87 80 71 59 44 30 25 24 26 26 26 26 25 22 19 20 17 14 11 12 11 10 8 7 7
99 97 97 91 90 99 90 89 96 100 100 100 100 100 100 100 96 88 81 61 45 34 27 26 24 25 26 26 24 23 22 21 19 17 15 12 10 8 8 7 7 6 6 7
100 100 100 100 98 100 94 100 100 100 100 100 100 97 86 75 63 46 37 33 28 28 30 29 28 25 23 23 25 24 19 16 13 11 9 8 7 7 7 7 6 7 8 8
100 100 100 98 98 97 95 95 97 100 100 95 78 58 42 36 32 27 28 30 30 29 24 22 21 22 25 25 20 15 12 10 8 7 8 8 8 9 8 8 9 10 10 10
99 94 89 90 96 100 100 99 90 66 47 40 37 36 35 32 30 32 31 27 24 21 23 23 27 29 24 21 15 10 9 8 8 9 10 10 9 8 8 9 9 9 10 11
88 93 93 90 77 62 47 40 35 35 37 36 36 34 32 33 33 33 31 24 23 25 28 41 37 29 21 14 11 9 9 8 10 10 11 10 8 8 8 8 9 10 11 12
58 43 34 31 33 32 32 33 33 33 38 36 35 37 36 34 33 28 26 40 37 44 50 39 30 26 17 12 10 11 10 10 10 11 10 9 8 8 8 10 11 12 13 14
29 29 29 28 29 32 35 38 38 37 37 37 37 50 44 46 43 40 49 58 84 79 43 40 29 23 14 12 11 10 9 9 9 10 10 9 8 8 10 12 13 14 15 20
29 28 32 37 37 37 38 37 39 46 49 38 54 61 78 65 54 56 68 92 75 48 43 31 24 16 12 11 9 7 7 7 8 9 9 9 9 10 13 14 14 18 24 37
35 37 37 36 36 35 40 46 44 52 44 62 86 74 79 66 67 100 100 84 74 49 35 26 16 12 10 9 7 6 6 7 8 9 9 10 11 13 15 16 22 31 43 48
Wind_Speed
79 76 70 67 66 66 67 66 65 66 61 59 59 57 59 51 47 62 66 69 69 70 70 72 72 74 75 74 76 77 80 80 81 85 89 91 91 90 88 88 86 87 89 90
85 77 74 73 73 72 70 66 66 65 60 61 58 57 59 65 63 58 65 66 72 77 75 72 68 66 68 70 76 82 87 89 92 91 91 89 86 87 89 90 90 91 93 95
84 79 79 78 74 71 71 66 68 66 63 63 57 58 60 62 56 56 55 62 65 72 74 73 77 79 80 82 85 86 87 88 89 88 88 90 92 93 92 91 96 97 99 100
84 78 79 77 72 76 76 73 70 64 65 65 62 62 60 57 57 57 63 66 68 67 68 73 76 78 78 80 84 85 85 85 88 89 93 95 95 95 96 99 101 103 105 107
83 82 80 79 74 76 76 74 74 70 66 65 63 64 69 62 67 58 65 66 69 72 75 76 79 80 83 83 81 84 85 88 92 96 98 98 101 104 106 107 106 105 106 106
82 80 81 79 76 75 75 79 77 72 68 65 70 65 66 64 72 75 78 77 77 79 80 80 83 80 81 83 85 90 91 95 96 99 102 104 105 105 105 106 105 107 109 109
82 81 80 79 77 73 71 77 78 76 73 71 70 68 64 69 72 73 77 80 83 84 85 87 89 89 91 92 95 95 97 98 100 102 103 103 103 105 108 109 110 111 112 113
86 84 80 77 75 72 69 69 74 74 74 71 70 71 69 71 72 71 73 75 78 82 84 85 87 88 89 90 92 94 95 98 100 102 104 106 108 110 112 114 116 116 116 117
81 84 83 78 76 74 71 69 70 70 71 71 71 70 69 71 73 73 74 75 78 80 82 83 84 86 89 91 94 97 99 102 105 107 110 112 114 115 118 119 120 120 121 121
65 75 80 81 77 73 72 72 73 71 71 72 73 71 67 72 75 75 77 78 80 82 84 86 88 91 94 97 100 101 104 107 111 113 116 118 120 122 123 123 124 125 125 124
50 60 70 77 78 76 75 75 74 73 71 70 71 71 69 70 75 77 79 81 83 85 88 90 93 97 99 102 105 108 111 114 117 119 122 123 125 127 129 129 129 129 128 129
40 45 51 58 64 66 68 67 68 66 63 66 68 70 69 70 74 77 80 84 86 89 93 95 98 101 104 107 110 113 116 119 121 124 126 128 129 130 131 133 135 135 133 130
32 35 37 38 41 46 50 52 53 55 58 62 64 66 69 72 76 78 81 85 89 92 95 97 102 104 107 110 113 116 119 120 123 125 129 130 133 135 136 136 134 131 128 126
22 24 26 29 33 34 38 42 46 50 54 57 62 64 70 72 78 80 83 87 90 94 97 100 103 106 108 110 113 117 118 121 124 126 127 129 130 131 131 132 127 122 122 120
23 24 26 28 29 30 34 37 41 45 48 51 57 60 64 66 71 76 80 84 87 89 92 97 100 104 107 110 114 116 119 119 120 121 123 124 125 126 126 124 124 124 122 110
23 23 24 26 28 31 34 37 39 42 46 49 53 57 61 65 68 72 75 80 85 88 92 95 98 103 108 110 110 110 112 115 116 119 123 123 125 128 128 126 122 117 106 94
20 23 24 26 27 30 34 37 40 42 45 48 52 56 61 64 68 73 76 81 84 90 95 98 98 96 97 103 107 112 116 114 118 122 124 125 125 120 119 111 104 94 87 82
14 17 20 24 25 28 33 34 38 41 45 49 53 57 62 66 71 74 79 84 85 84 83 87 91 96 102 103 105 108 108 114 119 122 121 110 110 101 95 88 83 79 73 69
19 21 23 25 28 30 35 36 40 44 48 51 56 61 66 70 74 74 72 74 76 82 87 93 96 97 95 96 98 102 105 106 105 103 100 95 89 83 78 74 71 67 62 59
24 26 27 30 32 34 36 39 42 46 50 55 58 60 61 60 63 66 70 75 79 86 88 88 86 89 91 94 91 91 94 92 89 87 82 79 75 72 69 65 62 58 54 49
27 28 29 31 33 35 39 42 46 47 46 49 50 52 54 58 64 68 74 72 79 86 85 88 85 92 95 92 89 85 84 82 79 76 72 70 68 66 62 57 52 49 45 41
27 30 32 34 37 38 38 36 38 38 42 44 48 52 57 63 66 72 74 79 86 88 88 96 99 100 95 89 85 80 77 74 71 68 65 64 62 58 52 48 43 40 37 34
29 28 29 29 27 26 27 29 29 35 38 44 49 52 50 60 68 73 76 81 86 93 97 100 101 98 93 85 79 75 73 69 66 62 60 58 54 48 43 38 35 32 29 26
21 19 15 15 17 20 25 27 31 38 41 43 41 49 57 64 68 74 80 87 96 102 105 105 103 97 87 80 76 72 69 65 59 56 53 51 46 39 34 30 28 25 22 20
7 7 11 13 14 21 24 28 33 27 32 39 46 53 62 66 73 79 85 93 100 104 109 107 98 90 80 76 72 68 63 58 52 49 47 43 37 31 27 24 21 18 17 17
4 8 14 18 20 19 24 26 25 31 36 44 51 57 63 68 75 84 87 95 104 109 110 104 91 82 77 72 67 62 56 51 45 43 40 34 28 22 20 18 14 13 14 16
Wind_Direction
230 230 231 230 233 235 236 236 237 238 239 244 248 250 244 249 262 258 256 255 256 260 265 269 273 276 276 278 282 281 281 282 283 287 289 290 290 291 291 292 292 292 291 291
229 232 231 228 230 233 236 238 238 238 238 240 243 244 243 244 253 266 268 262 263 262 264 268 270 271 273 275 276 280 283 284 286 288 288 289 289 290 291 290 290 289 289 289
228 228 230 229 231 233 236 237 239 240 240 240 241 242 247 250 252 259 261 264 270 273 269 269 273 277 277 278 280 281 282 285 286 288 288 289 289 289 289 288 286 286 287 288
225 227 229 230 233 235 234 233 237 239 243 244 242 243 245 251 246 263 262 266 267 272 275 279 280 282 282 282 282 283 284 285 286 286 288 287 285 285 285 285 286 288 288 288
223 225 227 230 233 235 235 234 236 239 243 246 248 246 248 244 244 250 257 259 264 268 269 272 274 277 279 281 279 280 281 281 282 283 282 282 284 286 288 287 287 288 288 289
220 224 226 229 232 234 233 233 235 239 242 247 250 250 251 252 250 249 256 261 265 267 269 271 274 274 274 276 276 276 277 279 278 280 283 285 286 287 288 287 288 289 290 291
220 222 226 228 232 233 233 234 236 239 244 245 251 256 256 255 255 256 259 261 264 268 269 269 270 272 275 278 279 280 281 283 283 284 286 286 286 288 289 290 291 291 291 290
218 220 225 227 230 231 233 235 237 241 245 248 252 256 257 258 259 260 262 265 268 270 272 274 276 278 280 281 282 283 284 286 286 287 287 288 289 290 291 291 291 291 291 291
216 220 223 225 228 230 233 236 239 241 247 252 254 258 260 261 261 263 265 267 269 272 274 277 279 282 283 284 286 287 288 288 289 289 291 292 292 292 292 292 291 290 290 290
216 219 222 226 230 232 236 239 244 246 252 256 259 258 258 260 262 264 267 270 273 276 278 280 282 283 285 286 286 288 289 291 291 292 292 291 292 292 292 291 290 290 290 290
213 219 223 227 230 233 238 242 247 252 254 256 257 259 259 259 261 265 269 272 275 277 279 282 283 284 286 288 289 290 290 292 292 292 292 291 292 292 292 292 291 291 291 291
209 215 221 227 231 236 240 244 248 249 250 252 255 260 262 261 263 266 269 272 276 278 279 281 284 285 286 288 289 291 291 291 292 292 293 293 292 291 291 292 292 293 292 292
214 219 224 227 229 231 233 238 244 248 251 255 259 261 264 266 267 269 271 274 276 279 282 283 284 286 288 289 290 290 291 292 292 293 292 293 292 292 292 293 293 294 294 293
210 212 214 218 224 229 235 240 246 251 255 259 261 263 265 268 271 274 275 277 279 280 282 284 286 288 289 289 290 291 292 291 291 291 291 291 292 293 293 294 295 296 296 296
204 208 212 220 227 232 238 245 250 255 260 264 267 270 270 273 277 279 281 283 284 285 285 286 287 289 290 292 293 293 293 293 293 293 293 294 295 296 297 298 299 298 299 298
213 216 221 227 233 240 246 250 257 262 267 270 275 279 280 280 280 282 282 283 285 288 288 289 290 290 291 293 293 294 295 296 295 295 294 294 296 299 297 296 298 297 298 298
220 228 233 239 244 251 257 260 266 270 275 277 278 279 281 283 284 285 287 288 290 290 292 294 297 297 296 296 296 296 296 293 293 295 295 295 296 296 297 298 296 297 297 297
223 234 241 250 253 260 263 268 270 273 274 276 279 282 284 285 287 289 291 292 293 295 296 298 297 298 298 297 297 295 296 295 293 293 294 293 296 298 297 299 298 299 300 301
235 241 246 251 257 261 266 269 273 276 280 283 283 284 285 289 291 292 292 293 295 298 299 300 297 297 299 300 300 298 296 295 295 296 297 298 298 299 300 300 301 303 303 302
244 249 253 258 263 268 272 275 278 280 283 284 284 286 287 287 291 294 296 295 297 296 299 301 302 307 307 308 307 300 297 297 299 301 303 303 302 301 301 303 304 304 302 304
255 258 261 266 269 273 277 280 282 282 282 282 285 287 291 292 294 295 294 302 302 305 308 312 315 318 317 312 309 306 304 304 304 305 305 304 303 304 304 303 304 303 305 304
262 267 271 273 275 277 279 275 275 280 280 286 289 290 291 293 300 303 308 308 308 313 316 323 324 322 318 315 312 309 308 306 307 307 306 305 306 306 305 305 305 303 304 305
266 268 270 275 276 276 276 276 284 282 282 289 296 300 308 307 311 318 317 323 321 323 327 326 325 324 320 317 313 312 309 309 307 307 306 305 307 308 308 306 306 308 305 304
266 273 270 281 302 291 286 290 289 286 293 298 309 322 321 321 324 322 327 326 328 326 328 328 327 323 319 317 314 312 311 309 308 306 304 305 308 310 308 308 308 305 306 308
243 296 319 295 289 289 285 284 293 316 315 321 327 327 325 327 327 327 328 328 325 328 329 328 326 322 319 317 315 313 312 310 307 305 304 307 310 307 307 307 305 307 313 325
328 277 281 267 267 290 299 304 309 321 321 331 331 329 326 329 327 331 328 328 329 329 331 329 325 322 320 318 316 315 314 311 308 305 306 309 308 307 308 306 307 317 330 329